Flint, MI

4:51 AM EDT on May 28, 2018 (GMT -0400)
Bishop International

Weather History for KFNT - March, 2012

Change the Weather History Date:

Friday, March 30, 2012

  Actual Average Record
Temperature  
Mean Temperature 33 °F 40 °F  
Max Temperature 38 °F 50 °F 79 °F (1998)
Min Temperature 27 °F 30 °F 4 °F (1954)
Degree Days  
Heating Degree Days 32 25  
Month to date heating degree days 467 931  
Since 1 July heating degree days 4732 6019  
Cooling Degree Days 0 0  
Month to date cooling degree days 21 0  
Year to date cooling degree days 21 0  
Moisture  
Dew Point 30 °F    
Average Humidity 81    
Maximum Humidity 92    
Minimum Humidity 70    
Precipitation  
Precipitation 0.47 in 0.07 in 1.09 in (2017)
Month to date precipitation 2.03 1.83  
Year to date precipitation 5.81 4.94  
Snow  
Snow 0.10 in 0.20 in 0.60 in (1975)
Month to date snowfall 0.9 6.4  
Since 1 July snowfall 33.2 45.0  
Snow Depth 0.00 in    
Sea Level Pressure  
Sea Level Pressure 29.95 in    
Wind  
Wind Speed 9 mph (East)    
Max Wind Speed 21 mph    
Max Gust Speed 28 mph    
Visibility 6 miles    
Events Rain , Thunderstorm    
T = Trace of Precipitation, MM = Missing Value Source: NWS Daily Summary

Daily Weather History Graph

Daily Weather History Graph

Search for Another Location

Airport or City:

Astronomy

Mar. 30, 2012 Rise Set
Actual Time 7:19 AM EDT 7:59 PM EDT
Civil Twilight 6:51 AM EDT 8:28 PM EDT
Nautical Twilight 6:17 AM EDT 9:02 PM EDT
Astronomical Twilight 5:42 AM EDT 9:37 PM EDT
Moon 12:17 PM EDT (3/30) 2:42 AM EDT (3/30)
Length of Visible Light 13h 37m
Length of Day
12h 39m
Waxing Crescent, 49% of the Moon is Illuminated
Mar 30
Waxing Crescent
Mar 30
First Quarter
Apr 6
Full
Apr 13
Last Quarter
Apr 21
New

Hourly Weather History & Observations

Time (EDT) Temp. Windchill Dew Point Humidity Pressure Visibility Wind Dir Wind Speed Gust Speed Precip Events Conditions
12:53 AM 32.0 °F 24.8 °F 25.0 °F 75% 30.14 in 10.0 mi East 8.1 mph - N/A   Clear
1:53 AM 30.9 °F 24.3 °F 24.1 °F 76% 30.12 in 10.0 mi East 6.9 mph - N/A   Clear
2:53 AM 30.0 °F 23.2 °F 24.1 °F 79% 30.12 in 10.0 mi East 6.9 mph - N/A   Clear
3:53 AM 30.0 °F 23.2 °F 24.1 °F 79% 30.08 in 10.0 mi ESE 6.9 mph - N/A   Clear
4:53 AM 28.9 °F 21.9 °F 23.0 °F 78% 30.08 in 10.0 mi East 6.9 mph - N/A   Clear
5:53 AM 28.9 °F 25.2 °F 23.0 °F 78% 30.07 in 10.0 mi SSE 3.5 mph - N/A   Clear
6:53 AM 28.0 °F 21.7 °F 23.0 °F 81% 30.04 in 10.0 mi ESE 5.8 mph - N/A   Clear
7:40 AM 30.2 °F 26.7 °F 24.8 °F 80% 30.02 in 9.0 mi ESE 3.5 mph - N/A   Mostly Cloudy
7:53 AM 32.0 °F 26.4 °F 24.8 °F 75% 30.02 in 10.0 mi ESE 5.8 mph - N/A   Overcast
8:53 AM 35.1 °F 26.9 °F 27.0 °F 72% 30.02 in 10.0 mi SE 11.5 mph 16.1 mph N/A   Overcast
9:53 AM 37.0 °F 28.9 °F 28.0 °F 70% 29.98 in 10.0 mi ESE 12.7 mph - N/A   Overcast
10:53 AM 37.9 °F 33.5 °F 28.0 °F 68% 30.00 in 10.0 mi East 5.8 mph - N/A   Overcast
11:32 AM 35.6 °F 30.7 °F 30.2 °F 81% 30.03 in 2.0 mi Variable 5.8 mph - 0.05 in Rain Rain
11:40 AM 35.6 °F 24.8 °F 30.2 °F 81% 29.93 in 1.2 mi ENE 19.6 mph - 0.07 in Rain , Thunderstorm Heavy Thunderstorms and Rain
11:46 AM 35.6 °F 29.2 °F 30.2 °F 81% 29.98 in 1.2 mi East 8.1 mph - 0.14 in Rain , Thunderstorm Heavy Thunderstorms and Rain
11:53 AM 35.1 °F 32.2 °F 30.9 °F 85% 30.01 in 1.2 mi NNE 3.5 mph - 0.18 in Rain , Thunderstorm Thunderstorms and Rain
11:55 AM 35.6 °F 29.9 °F 30.2 °F 81% 29.98 in 2.0 mi NE 6.9 mph - 0.00 in Rain , Thunderstorm Thunderstorms and Rain
12:16 PM 35.6 °F 27.1 °F 30.2 °F 81% 29.93 in 1.0 mi ESE 12.7 mph - 0.11 in Rain , Thunderstorm Thunderstorms and Rain
12:27 PM 35.6 °F 25.5 °F 32.0 °F 87% 29.90 in 2.0 mi ESE 17.3 mph 24.2 mph 0.18 in Rain Rain
12:36 PM 35.6 °F 26.2 °F 32.0 °F 87% 29.88 in 3.0 mi East 15.0 mph 25.3 mph 0.19 in Rain Light Rain
12:53 PM 36.0 °F 25.3 °F 32.0 °F 86% 29.88 in 5.0 mi ESE 19.6 mph 26.5 mph 0.19 in   Overcast
1:24 PM 35.6 °F 27.1 °F 32.0 °F 87% 29.85 in 5.0 mi East 12.7 mph - 0.00 in   Overcast
1:53 PM 36.0 °F 28.5 °F 32.0 °F 86% 29.86 in 5.0 mi East 10.4 mph - 0.00 in   Overcast
2:16 PM 37.4 °F 30.8 °F 33.8 °F 87% 29.84 in 2.5 mi ENE 9.2 mph - 0.00 in   Overcast
2:53 PM 36.0 °F 29.0 °F 33.1 °F 89% 29.84 in 2.5 mi East 9.2 mph - 0.02 in Rain Rain
3:00 PM 35.6 °F 29.2 °F 33.8 °F 93% 29.83 in 1.5 mi ENE 8.1 mph - 0.01 in Rain Light Rain
3:53 PM 36.0 °F 29.0 °F 33.1 °F 89% 29.88 in 1.0 mi NE 9.2 mph - 0.04 in Rain Light Rain
4:53 PM 37.0 °F 30.4 °F 33.1 °F 86% 29.86 in 1.5 mi East 9.2 mph - 0.02 in Rain Light Rain
5:43 PM 37.4 °F 30.3 °F 33.8 °F 87% 29.85 in 6.0 mi ENE 10.4 mph - 0.02 in   Overcast
5:51 PM 37.4 °F 29.8 °F 33.8 °F 87% 29.85 in 7.0 mi ENE 11.5 mph - 0.02 in   Overcast
5:53 PM 37.0 °F 29.8 °F 33.1 °F 86% 29.87 in 7.0 mi ENE 10.4 mph - 0.02 in   Overcast
6:53 PM 37.0 °F 29.3 °F 33.1 °F 86% 29.88 in 9.0 mi NE 11.5 mph - N/A   Overcast
7:53 PM 37.0 °F 30.4 °F 33.1 °F 86% 29.88 in 5.0 mi NE 9.2 mph - N/A   Overcast
8:53 PM 37.0 °F 29.8 °F 33.1 °F 86% 29.89 in 7.0 mi NE 10.4 mph - N/A   Overcast
9:53 PM 36.0 °F 28.0 °F 32.0 °F 86% 29.91 in 6.0 mi NE 11.5 mph - N/A   Overcast
10:53 PM 35.1 °F 26.9 °F 30.9 °F 85% 29.92 in 9.0 mi NE 11.5 mph - N/A   Overcast
11:53 PM 34.0 °F 25.5 °F 30.0 °F 85% 29.94 in 10.0 mi ENE 11.5 mph - N/A   Overcast